Miscellaneous Local Product
Issued by NWS North Platte, NE

Home | Current Version | Previous Version | Graphics & Text | Print | Product List | Glossary On
Versions: 1 2 3 4 5 6 7 8 9 10 11 12 13 14 15 16 17 18 19 20 21 22 23 24 25 26 27 28 29 30 31 32 33 34 35 36 37 38 39 40 41 42 43 44 45 46 47 48 49 50
720
AXUS43 KLBF 231910
MISLBF


WESTERN AND NORTH CENTRAL NEBRASKA HOURLY WEATHER ROUNDUP
NATIONAL WEATHER SERVICE NORTH PLATTE NE
200 PM CDT FRI JUN 23 2017

NOTE: "FAIR" INDICATES FEW OR NO CLOUDS BELOW 12,000 FEET WITH NO
SIGNIFICANT WEATHER AND/OR OBSTRUCTIONS TO VISIBILITY.

NOTE: STATIONS NOT REPORTING VARIABLES SUCH AS SKY/WEATHER OR
PRESSURE ARE PROVIDED BY RAWS AND APRS NETWORKS AND ARE NOT UNDER
NATIONAL WEATHER SERVICE QUALITY CONTROL.

...OBSERVATIONS IN AND NEAR THE EASTERN PANHANDLE OF NEBRASKA...

CITY           SKY/WX    TMP DP  RH WIND       PRES   REMARKS
PINE RIDGE     MOSUNNY   68  42  38 NW7       30.17F
GORDON         FAIR      65  41  42 N10G20    30.17F
CHADRON        SUNNY     69  33  26 NW17G24   30.17F
ALLIANCE       SUNNY     68  34  28 N17G26    30.19S
SIDNEY         CLOUDY    63  41  44 NW13      30.24F
CRESCENT LAKE    N/A     68  34  28 N15G25      N/A
$$

...OBSERVATIONS IN NORTHERN NEBRASKA AND FAR SOUTHERN SOUTH DAKOTA...

CITY           SKY/WX    TMP DP  RH WIND       PRES   REMARKS
WINNER         FAIR      72  39  30 NW20G35   30.09
VALENTINE      PTSUNNY   69  37  30 NW21G31   30.13F
THEDFORD       MOSUNNY   70  43  37 NW21      30.15S
AINSWORTH      PTSUNNY   67  44  43 N23G30    30.13S
O`NEILL        CLOUDY    66  48  51 N17G25    30.10S
ORD            MOSUNNY   73  44  35 N21G29    30.07F
BROKEN BOW     MOSUNNY   73  44  35 NW17G28   30.11F
VALENTINE NWR    N/A     65  44  47 N15G25      N/A
HALSEY           N/A     69  42  37 NW13G21     N/A
BUTTE            N/A     64  47  54 NW16G26     N/A
CHAMBERS         N/A     71  47  41 N3          N/A
EWING            N/A     68  51  54 N14         N/A
$$

...OBSERVATIONS IN SOUTHWEST NEBRASKA AND FAR NORTHEAST COLORADO...

CITY           SKY/WX    TMP DP  RH WIND       PRES   REMARKS
WRAY           CLOUDY    70  43  37 N10G18    30.22F
IMPERIAL       CLOUDY    69  40  34 NW13G20   30.19F
OGALLALA       CLOUDY    71  35  26 W10G17    30.18F
NORTH PLATTE   SUNNY     76  41  28 NW14G21   30.14F
MCCOOK         MOSUNNY   75  45  34 NW16      30.14S
LEXINGTON      PTSUNNY   72  46  39 NW12G17   30.12S
STAPLETON        N/A     70  46  41 CALM        N/A
GOTHENBURG       N/A     70  40  33 NW9         N/A
CALLAWAY         N/A     68  46  44 N16         N/A
$$

...OBSERVATIONS IN CENTRAL LINCOLN COUNTY AREA...

CITY           SKY/WX    TMP DP  RH WIND       PRES   REMARKS
N.P. AIRPORT   SUNNY     76  41  28 NW14G21   30.14F
N.P. DOWNTOWN    N/A     73  43  33 NW6G14      N/A
N.P. SOUTHEAST   N/A     72  42  34 NW6G14      N/A
N.P. HILLCREST   N/A     70  41  34 N14G24      N/A
$$

...SOME OBSERVATIONS FROM AROUND THE REGION...

CITY           SKY/WX    TMP DP  RH WIND       PRES   REMARKS
DENVER         CLOUDY    54  42  64 SE8       30.30S
LIMON          CLOUDY    57  42  57 VRB5      30.30S
ASPEN          SUNNY     77  23  13 N9        30.24F
LARAMIE        SUNNY     65  34  31 N13G22    30.27F
CASPER         MOSUNNY   64  30  27 MISG      30.28S
CHEYENNE       SUNNY     61  39  44 VRB3      30.27F
SCOTTSBLUFF    SUNNY     71  33  24 NW13G21   30.21S
GRAND ISLAND   SUNNY     75  48  38 N16G26    30.08F
OMAHA          PTSUNNY   72  52  49 NW22      30.00F
SIOUX FALLS    CLOUDY    66  52  60 NW24G32   29.98F
PIERRE         SUNNY     68  37  32 NW24G32   30.08F
RAPID CITY     SUNNY     67  34  29 N23G37    30.16F
BISMARCK       MOSUNNY   65  37  35 NW22G33   30.06F
KANSAS CITY    PTSUNNY   78  56  46 N20G31    29.94R
HILL CITY      CLOUDY    75  46  35 N12G21    30.15S
WICHITA        LGT RAIN  80  52  37 N15G21    29.99R
DODGE CITY     MOSUNNY   72  49  44 NE17G28   30.14R
OKLAHOMA CITY  CLOUDY    88  70  55 N16       29.91R HX  93
DALLAS         MOSUNNY   95  74  50 VRB3      29.80S HX 105
AMARILLO       CLOUDY    78  62  57 NE28G37   30.08F
$$




USA.gov is the U.S. government's official web portal to all federal, state and local government web resources and services.